| time (UTC) | temp C | wind direction | speed KPH | gust KPH | rain 1hr cm | rain 24hr cm | rain mn cm | humidity % | barometer mb |
| 20260902002523 | 26 | 180 | 1.6 | 3.2 | 0.00 | 0.00 | 0.00 | 94 | 1017.8 |
| 20260902001528 | 27 | 0.0 | 0.0 | 0.00 | 0.00 | 0.00 | 93 | 1017.8 | |
| 20260902000516 | 27 | 0.0 | 0.0 | 0.00 | 0.00 | 0.00 | 91 | 1017.8 | |
| 20260901235520 | 27 | 0.0 | 0.0 | 0.00 | 0.00 | 0.00 | 90 | 1017.6 | |
| 20260901234525 | 28 | 0.0 | 0.0 | 0.00 | 0.00 | 0.00 | 88 | 1017.4 | |
| 20260901233530 | 29 | 180 | 1.6 | 4.8 | 0.00 | 0.00 | 0.00 | 83 | 1017.6 |
| 20260901232517 | 30 | 185 | 1.6 | 3.2 | 0.00 | 0.00 | 0.00 | 83 | 1017.6 |
| 20260901231522 | 31 | 0.0 | 0.0 | 0.00 | 0.00 | 0.00 | 78 | 1017.6 | |
| 20260901230527 | 32 | 0.0 | 0.0 | 0.00 | 0.00 | 0.00 | 75 | 1017.6 | |
| 20260901225532 | 32 | 244 | 4.8 | 9.7 | 0.00 | 0.00 | 0.00 | 73 | 1017.6 |
| 20260901224559 | 32 | 242 | 4.8 | 8.0 | 0.00 | 0.00 | 0.00 | 72 | 1017.6 |
| 20260901223544 | 33 | 258 | 6.4 | 11.3 | 0.00 | 0.00 | 0.00 | 70 | 1017.6 |
| 20260901222529 | 34 | 241 | 6.4 | 9.7 | 0.00 | 0.00 | 0.00 | 70 | 1017.6 |
| 20260901221515 | 34 | 231 | 6.4 | 8.0 | 0.00 | 0.00 | 0.00 | 69 | 1017.6 |
| 20260901220540 | 33 | 237 | 4.8 | 8.0 | 0.00 | 0.00 | 0.00 | 71 | 1017.6 |
| 20260901215525 | 33 | 250 | 4.8 | 8.0 | 0.00 | 0.00 | 0.00 | 71 | 1017.8 |
| 20260901214611 | 32 | 279 | 6.4 | 8.0 | 0.00 | 0.00 | 0.00 | 73 | 1017.6 |
| 20260901213518 | 32 | 269 | 4.8 | 9.7 | 0.00 | 0.00 | 0.00 | 72 | 1017.6 |
| 20260901212522 | 32 | 254 | 6.4 | 9.7 | 0.00 | 0.00 | 0.00 | 72 | 1017.7 |
| 20260901211527 | 33 | 263 | 4.8 | 8.0 | 0.00 | 0.00 | 0.00 | 71 | 1017.8 |
| 20260901210532 | 34 | 226 | 8.0 | 11.3 | 0.00 | 0.00 | 0.00 | 69 | 1017.8 |
| 20260901205519 | 35 | 257 | 11.3 | 12.9 | 0.00 | 0.00 | 0.00 | 67 | 1017.8 |
| 20260901204524 | 35 | 270 | 6.4 | 8.0 | 0.00 | 0.00 | 0.00 | 67 | 1017.8 |
| 20260901203529 | 35 | 280 | 8.0 | 11.3 | 0.00 | 0.00 | 0.00 | 65 | 1017.6 |
| 20260901202516 | 35 | 253 | 8.0 | 16.1 | 0.00 | 0.00 | 0.00 | 66 | 1017.8 |
| 20260901201521 | 35 | 253 | 9.7 | 12.9 | 0.00 | 0.00 | 0.00 | 67 | 1017.8 |
| 20260901200525 | 35 | 240 | 9.7 | 14.5 | 0.00 | 0.00 | 0.00 | 66 | 1017.8 |
| 20260901195551 | 35 | 252 | 6.4 | 9.7 | 0.00 | 0.00 | 0.00 | 68 | 1018.1 |
| 20260901194517 | 35 | 255 | 8.0 | 11.3 | 0.00 | 0.00 | 0.00 | 68 | 1018.1 |
| 20260901193523 | 34 | 247 | 8.0 | 12.9 | 0.00 | 0.00 | 0.00 | 70 | 1018.1 |
| 20260901192528 | 34 | 242 | 8.0 | 12.9 | 0.00 | 0.00 | 0.00 | 70 | 1018.2 |
| 20260901191533 | 34 | 259 | 11.3 | 17.7 | 0.00 | 0.00 | 0.00 | 71 | 1018.3 |
| 20260901190519 | 33 | 232 | 6.4 | 11.3 | 0.00 | 0.00 | 0.00 | 74 | 1018.3 |
| 20260901185524 | 32 | 249 | 9.7 | 11.3 | 0.00 | 0.00 | 0.00 | 75 | 1018.8 |
| 20260901184529 | 33 | 266 | 8.0 | 12.9 | 0.00 | 0.00 | 0.00 | 77 | 1018.8 |
| 20260901183536 | 33 | 226 | 6.4 | 9.7 | 0.00 | 0.00 | 0.00 | 76 | 1018.8 |
| 20260901182521 | 33 | 256 | 11.3 | 14.5 | 0.00 | 0.00 | 0.00 | 77 | 1018.8 |
| 20260901181525 | 33 | 219 | 9.7 | 16.1 | 0.00 | 0.00 | 0.00 | 76 | 1018.9 |
| 20260901180531 | 33 | 253 | 8.0 | 12.9 | 0.00 | 0.00 | 0.00 | 76 | 1019.1 |
| 20260901175517 | 32 | 257 | 9.7 | 14.5 | 0.00 | 0.00 | 0.00 | 78 | 1019.4 |
| 20260901174522 | 32 | 247 | 8.0 | 16.1 | 0.00 | 0.00 | 0.00 | 79 | 1019.2 |
| 20260901173527 | 32 | 235 | 9.7 | 14.5 | 0.00 | 0.00 | 0.00 | 80 | 1019.2 |
| 20260901172526 | 32 | 247 | 11.3 | 17.7 | 0.00 | 0.00 | 0.00 | 78 | 1019.1 |
| 20260901171519 | 31 | 221 | 9.7 | 17.7 | 0.00 | 0.00 | 0.00 | 80 | 1019.1 |
| 20260901170524 | 31 | 259 | 9.7 | 16.1 | 0.00 | 0.00 | 0.00 | 79 | 1019.1 |
| 20260901165523 | 31 | 238 | 8.0 | 12.9 | 0.00 | 0.00 | 0.00 | 81 | 1019.3 |
| 20260901164516 | 31 | 254 | 8.0 | 14.5 | 0.00 | 0.00 | 0.00 | 83 | 1019.4 |
| 20260901163540 | 31 | 255 | 8.0 | 14.5 | 0.00 | 0.00 | 0.00 | 85 | 1019.5 |
| 20260901162521 | 30 | 190 | 9.7 | 17.7 | 0.00 | 0.00 | 0.00 | 86 | 1019.6 |
| 20260901161519 | 30 | 261 | 9.7 | 17.7 | 0.00 | 0.00 | 0.00 | 86 | 1019.7 |
| 20260901160517 | 28 | 204 | 8.0 | 14.5 | 0.00 | 0.00 | 0.00 | 88 | 1019.7 |
| 20260901155556 | 28 | 9.7 | 9.7 | 0.00 | 0.00 | 0.00 | 88 | 1019.8 | |
| 20260901154515 | 28 | 234 | 8.0 | 14.5 | 0.00 | 0.00 | 0.00 | 88 | 1020.1 |
| 20260901153532 | 27 | 203 | 4.8 | 6.4 | 0.00 | 0.00 | 0.00 | 90 | 1020.2 |
| 20260901152519 | 27 | 242 | 6.4 | 12.9 | 0.00 | 0.00 | 0.00 | 91 | 1020.1 |
| 20260901151524 | 26 | 230 | 6.4 | 8.0 | 0.00 | 0.00 | 0.00 | 92 | 1020.1 |
| 20260901150529 | 26 | 225 | 6.4 | 9.7 | 0.00 | 0.00 | 0.00 | 93 | 1020.1 |
| 20260901145515 | 26 | 210 | 6.4 | 11.3 | 0.00 | 0.00 | 0.00 | 94 | 1020.1 |
| 20260901144520 | 26 | 225 | 6.4 | 9.7 | 0.00 | 0.00 | 0.00 | 95 | 1020.3 |
| 20260901143545 | 25 | 158 | 6.4 | 9.7 | 0.00 | 0.00 | 0.00 | 96 | 1020.4 |
| 20260901142530 | 26 | 249 | 8.0 | 11.3 | 0.00 | 0.00 | 0.00 | 92 | 1020.5 |
| 20260901141538 | -17 | 203 | 6.4 | 6.4 | 0.00 | 0.00 | 0.00 | 1020.4 | |
| 20260901140522 | 28 | 227 | 4.8 | 8.0 | 0.00 | 0.00 | 0.00 | 89 | 1020.3 |
| 20260901135527 | 27 | 259 | 4.8 | 8.0 | 0.00 | 0.00 | 0.00 | 90 | 1020.4 |
| 20260901134532 | 26 | 238 | 4.8 | 8.0 | 0.00 | 0.00 | 0.00 | 93 | 1020.4 |
| 20260901133518 | 26 | 232 | 6.4 | 8.0 | 0.00 | 0.00 | 0.00 | 93 | 1020.4 |
| 20260901132523 | 26 | 233 | 6.4 | 8.0 | 0.00 | 0.00 | 0.00 | 93 | 1020.5 |
| 20260901131528 | 26 | 207 | 4.8 | 8.0 | 0.00 | 0.00 | 0.00 | 93 | 1020.6 |
| 20260901130516 | 26 | 246 | 4.8 | 6.4 | 0.00 | 0.00 | 0.00 | 93 | 1020.7 |
| 20260901125520 | 25 | 255 | 8.0 | 12.9 | 0.00 | 0.00 | 0.00 | 95 | 1020.7 |
| 20260901124525 | 25 | 242 | 6.4 | 8.0 | 0.00 | 0.00 | 0.00 | 99 | 1020.7 |
| 20260901123530 | 24 | 207 | 3.2 | 8.0 | 0.00 | 0.00 | 0.00 | 99 | 1020.8 |
| 20260901122517 | 23 | 248 | 3.2 | 6.4 | 0.00 | 0.00 | 0.00 | 99 | 1020.7 |
| 20260901121521 | 23 | 192 | 1.6 | 3.2 | 0.00 | 0.00 | 0.00 | 99 | 1020.7 |
| 20260901120527 | 22 | 170 | 1.6 | 8.0 | 0.00 | 0.00 | 0.00 | 99 | 1020.7 |
| 20260901115531 | 22 | 175 | 3.2 | 4.8 | 0.00 | 0.00 | 0.00 | 99 | 1020.7 |
| 20260901114518 | 21 | 0.0 | 0.0 | 0.00 | 0.00 | 0.00 | 99 | 1020.7 | |
| 20260901113523 | 21 | 0.0 | 0.0 | 0.00 | 0.00 | 0.00 | 99 | 1020.8 | |
| 20260901112528 | 21 | 0.0 | 0.0 | 0.00 | 0.00 | 0.00 | 99 | 1020.7 | |
| 20260901111533 | 20 | 0.0 | 0.0 | 0.00 | 0.00 | 0.00 | 99 | 1020.6 | |
| 20260901110520 | 20 | 0.0 | 0.0 | 0.00 | 0.03 | 0.00 | 99 | 1020.5 | |
| 20260901105545 | 20 | 180 | 1.6 | 3.2 | 0.00 | 0.03 | 0.00 | 99 | 1020.5 |
| 20260901104530 | 20 | 0.0 | 0.0 | 0.00 | 0.03 | 0.00 | 99 | 1020.6 | |
| 20260901103537 | 20 | 0.0 | 0.0 | 0.00 | 0.03 | 0.00 | 99 | 1020.5 | |
| 20260901102521 | 20 | 174 | 3.2 | 3.2 | 0.00 | 0.03 | 0.00 | 99 | 1020.4 |
| 20260901101527 | 20 | 0.0 | 0.0 | 0.00 | 0.03 | 0.00 | 99 | 1020.3 | |
| 20260901100532 | 20 | 0.0 | 0.0 | 0.00 | 0.03 | 0.00 | 99 | 1020.3 | |
| 20260901095518 | 20 | 0.0 | 0.0 | 0.00 | 0.03 | 0.00 | 99 | 1020.4 | |
| 20260901094523 | 20 | 0.0 | 0.0 | 0.00 | 0.03 | 0.00 | 99 | 1020.4 | |
| 20260901093528 | 20 | 0.0 | 0.0 | 0.00 | 0.03 | 0.00 | 99 | 1020.5 | |
| 20260901092533 | 20 | 0.0 | 0.0 | 0.00 | 0.03 | 0.00 | 99 | 1020.7 | |
| 20260901091520 | 20 | 0.0 | 0.0 | 0.00 | 0.03 | 0.00 | 99 | 1020.7 | |
| 20260901090525 | 20 | 0.0 | 0.0 | 0.00 | 0.03 | 0.00 | 99 | 1020.6 | |
| 20260901085530 | 20 | 0.0 | 0.0 | 0.00 | 0.03 | 0.00 | 99 | 1020.5 | |
| 20260901084536 | 20 | 0.0 | 0.0 | 0.00 | 0.03 | 0.00 | 99 | 1020.5 | |
| 20260901083521 | 20 | 0.0 | 0.0 | 0.00 | 0.03 | 0.00 | 99 | 1020.5 | |
| 20260901082526 | 20 | 0.0 | 0.0 | 0.00 | 0.03 | 0.00 | 99 | 1020.5 | |
| 20260901081525 | 20 | 0.0 | 0.0 | 0.00 | 0.03 | 0.00 | 99 | 1020.6 | |
| 20260901080519 | 20 | 0.0 | 0.0 | 0.00 | 0.03 | 0.00 | 99 | 1020.7 | |
| 20260901075523 | 20 | 0.0 | 0.0 | 0.00 | 0.03 | 0.00 | 99 | 1020.7 | |
| 20260901074522 | 20 | 0.0 | 0.0 | 0.00 | 0.03 | 0.00 | 99 | 1020.8 | |
| 20260901073520 | 20 | 0.0 | 0.0 | 0.00 | 0.03 | 0.00 | 99 | 1020.7 | |
| 20260901072519 | 20 | 0.0 | 0.0 | 0.00 | 0.03 | 0.00 | 99 | 1020.7 | |
| 20260901071518 | 20 | 0.0 | 0.0 | 0.00 | 0.03 | 0.00 | 99 | 1020.7 | |
| 20260901070518 | 19 | 0.0 | 0.0 | 0.00 | 0.03 | 0.00 | 99 | 1020.8 | |
| 20260901065516 | 19 | 0.0 | 0.0 | 0.00 | 0.03 | 0.00 | 99 | 1020.7 | |
| 20260901064531 | 20 | 0.0 | 0.0 | 0.00 | 0.03 | 0.00 | 99 | 1020.7 | |
| 20260901063518 | 20 | 0.0 | 0.0 | 0.00 | 0.03 | 0.00 | 99 | 1020.9 | |
| 20260901062523 | 20 | 0.0 | 0.0 | 0.00 | 0.03 | 0.00 | 99 | 1021.0 | |
| 20260901061528 | 20 | 0.0 | 0.0 | 0.00 | 0.03 | 0.00 | 99 | 1021.1 | |
| 20260901060515 | 20 | 0.0 | 0.0 | 0.00 | 0.03 | 0.00 | 99 | 1021.2 | |
| 20260901055541 | 20 | 0.0 | 0.0 | 0.00 | 0.03 | 0.00 | 99 | 1021.5 | |
| 20260901054525 | 20 | 0.0 | 0.0 | 0.00 | 0.03 | 0.00 | 99 | 1021.7 | |
| 20260901053530 | 20 | 0.0 | 0.0 | 0.00 | 0.03 | 0.00 | 99 | 1021.7 | |
| 20260901052517 | 20 | 0.0 | 0.0 | 0.00 | 0.03 | 0.00 | 99 | 1021.7 | |
| 20260901051542 | 20 | 0.0 | 0.0 | 0.00 | 0.03 | 0.00 | 99 | 1021.5 | |
| 20260901050547 | 21 | 0.0 | 0.0 | 0.00 | 0.03 | 0.00 | 99 | 1021.4 | |
| 20260901045526 | 21 | 0.0 | 0.0 | 0.00 | 0.03 | 0.00 | 99 | 1021.4 | |
| 20260901044518 | 21 | 0.0 | 0.0 | 0.00 | 0.03 | 0.00 | 99 | 1021.5 | |
| 20260901043523 | 21 | 0.0 | 0.0 | 0.00 | 0.03 | 0.00 | 99 | 1021.7 | |
| 20260901042523 | 21 | 0.0 | 0.0 | 0.00 | 0.03 | 0.00 | 99 | 1021.5 | |
| 20260901041515 | 21 | 0.0 | 0.0 | 0.00 | 0.03 | 0.00 | 99 | 1021.6 | |
| 20260901040520 | 21 | 0.0 | 0.0 | 0.00 | 0.03 | 0.00 | 99 | 1021.7 | |
| 20260901035520 | 21 | 0.0 | 0.0 | 0.00 | 0.03 | 0.03 | 99 | 1021.8 | |
| 20260901034538 | 21 | 0.0 | 0.0 | 0.00 | 0.03 | 0.03 | 99 | 1021.7 | |
| 20260901033517 | 21 | 0.0 | 0.0 | 0.00 | 0.03 | 0.03 | 99 | 1021.7 | |
| 20260901032516 | 21 | 0.0 | 0.0 | 0.00 | 0.03 | 0.03 | 99 | 1021.9 | |
| 20260901031547 | 21 | 0.0 | 0.0 | 0.00 | 0.03 | 0.03 | 99 | 1022.0 | |
| 20260901030613 | 22 | 158 | 0.0 | 3.2 | 0.00 | 0.03 | 0.03 | 99 | 1022.1 |
| 20260901025518 | 22 | 166 | 1.6 | 3.2 | 0.00 | 0.03 | 0.03 | 99 | 1022.2 |
| 20260901024544 | 22 | 0.0 | 0.0 | 0.00 | 0.03 | 0.03 | 99 | 1022.4 | |
| 20260901023529 | 22 | 0.0 | 0.0 | 0.00 | 0.03 | 0.03 | 99 | 1022.4 | |
| 20260901022516 | 22 | 0.0 | 0.0 | 0.00 | 0.03 | 0.03 | 99 | 1022.4 | |
| 20260901021520 | 22 | 0.0 | 0.0 | 0.00 | 0.03 | 0.03 | 99 | 1022.4 | |
| 20260901020526 | 22 | 0.0 | 0.0 | 0.00 | 0.03 | 0.03 | 99 | 1022.4 | |
| 20260901015530 | 22 | 135 | 0.0 | 1.6 | 0.00 | 0.03 | 0.03 | 99 | 1022.4 |
| 20260901014517 | 22 | 0.0 | 0.0 | 0.00 | 0.03 | 0.03 | 99 | 1022.2 | |
| 20260901013522 | 22 | 0.0 | 0.0 | 0.00 | 0.03 | 0.03 | 99 | 1022.0 | |
| 20260901012547 | 22 | 0.0 | 0.0 | 0.00 | 0.03 | 0.03 | 99 | 1021.9 | |
| 20260901011552 | 22 | 0.0 | 0.0 | 0.00 | 0.03 | 0.03 | 99 | 1021.8 | |
| 20260901010519 | 22 | 0.0 | 0.0 | 0.00 | 0.03 | 0.03 | 99 | 1021.7 | |
| 20260901005524 | 22 | 113 | 1.6 | 3.2 | 0.00 | 0.03 | 0.03 | 99 | 1021.7 |
| 20260901004549 | 22 | 0.0 | 0.0 | 0.00 | 0.03 | 0.03 | 99 | 1021.4 | |
| 20260901003516 | 22 | 0.0 | 0.0 | 0.00 | 0.03 | 0.03 | 99 | 1021.3 |